owner,sensor,date,latitude,longitude,vertical_datum,sea_water_temperature,qcFlag 
NERRS,ioos:station:NOAA.NERRS:rkblhwq:1,2017-02-01T00:45:00Z,26.0257,-81.7332,0.0,19.5,2 
NERRS,ioos:station:NOAA.NERRS:rkblhwq:1,2017-02-01T01:45:00Z,26.0257,-81.7332,0.0,19.5,2 
NERRS,ioos:station:NOAA.NERRS:rkblhwq:1,2017-02-01T02:45:00Z,26.0257,-81.7332,0.0,19.4,2 
NERRS,ioos:station:NOAA.NERRS:rkblhwq:1,2017-02-01T03:45:00Z,26.0257,-81.7332,0.0,19.1,2 
NERRS,ioos:station:NOAA.NERRS:rkblhwq:1,2017-02-01T04:45:00Z,26.0257,-81.7332,0.0,18.9,2 
NERRS,ioos:station:NOAA.NERRS:rkblhwq:1,2017-02-01T05:45:00Z,26.0257,-81.7332,0.0,18.7,2 
NERRS,ioos:station:NOAA.NERRS:rkblhwq:1,2017-02-01T06:45:00Z,26.0257,-81.7332,0.0,18.5,2 
NERRS,ioos:station:NOAA.NERRS:rkblhwq:1,2017-02-01T07:45:00Z,26.0257,-81.7332,0.0,18.5,2 
NERRS,ioos:station:NOAA.NERRS:rkblhwq:1,2017-02-01T08:45:00Z,26.0257,-81.7332,0.0,18.4,2 
NERRS,ioos:station:NOAA.NERRS:rkblhwq:1,2017-02-01T09:45:00Z,26.0257,-81.7332,0.0,18.2,2 
NERRS,ioos:station:NOAA.NERRS:rkblhwq:1,2017-02-01T10:45:00Z,26.0257,-81.7332,0.0,18.1,2 
NERRS,ioos:station:NOAA.NERRS:rkblhwq:1,2017-02-01T11:45:00Z,26.0257,-81.7332,0.0,18.0,2 
NERRS,ioos:station:NOAA.NERRS:rkblhwq:1,2017-02-01T12:45:00Z,26.0257,-81.7332,0.0,17.9,2 
NERRS,ioos:station:NOAA.NERRS:rkblhwq:1,2017-02-01T13:45:00Z,26.0257,-81.7332,0.0,17.9,2 
NERRS,ioos:station:NOAA.NERRS:rkblhwq:1,2017-02-01T14:45:00Z,26.0257,-81.7332,0.0,18.2,2 
NERRS,ioos:station:NOAA.NERRS:rkblhwq:1,2017-02-01T15:45:00Z,26.0257,-81.7332,0.0,18.7,2 
NERRS,ioos:station:NOAA.NERRS:rkblhwq:1,2017-02-01T16:45:00Z,26.0257,-81.7332,0.0,18.9,2 
NERRS,ioos:station:NOAA.NERRS:rkblhwq:1,2017-02-01T17:45:00Z,26.0257,-81.7332,0.0,19.5,2 
NERRS,ioos:station:NOAA.NERRS:rkblhwq:1,2017-02-01T18:45:00Z,26.0257,-81.7332,0.0,19.7,2 
NERRS,ioos:station:NOAA.NERRS:rkblhwq:1,2017-02-01T19:45:00Z,26.0257,-81.7332,0.0,20.1,2 
NERRS,ioos:station:NOAA.NERRS:rkblhwq:1,2017-02-01T20:45:00Z,26.0257,-81.7332,0.0,20.1,2 
NERRS,ioos:station:NOAA.NERRS:rkblhwq:1,2017-02-01T21:45:00Z,26.0257,-81.7332,0.0,20.2,2 
NERRS,ioos:station:NOAA.NERRS:rkblhwq:1,2017-02-01T22:45:00Z,26.0257,-81.7332,0.0,20.3,2 
NERRS,ioos:station:NOAA.NERRS:rkblhwq:1,2017-02-01T23:45:00Z,26.0257,-81.7332,0.0,20.3,2 
NERRS,ioos:station:NOAA.NERRS:rkblhwq:1,2017-02-02T00:45:00Z,26.0257,-81.7332,0.0,20.3,2 
NERRS,ioos:station:NOAA.NERRS:rkblhwq:1,2017-02-02T01:45:00Z,26.0257,-81.7332,0.0,20.5,2 
NERRS,ioos:station:NOAA.NERRS:rkblhwq:1,2017-02-02T02:45:00Z,26.0257,-81.7332,0.0,20.6,2 
NERRS,ioos:station:NOAA.NERRS:rkblhwq:1,2017-02-02T03:45:00Z,26.0257,-81.7332,0.0,20.4,2 
NERRS,ioos:station:NOAA.NERRS:rkblhwq:1,2017-02-02T04:45:00Z,26.0257,-81.7332,0.0,20.1,2 
NERRS,ioos:station:NOAA.NERRS:rkblhwq:1,2017-02-02T05:45:00Z,26.0257,-81.7332,0.0,19.9,2 
NERRS,ioos:station:NOAA.NERRS:rkblhwq:1,2017-02-02T06:45:00Z,26.0257,-81.7332,0.0,19.8,2 
NERRS,ioos:station:NOAA.NERRS:rkblhwq:1,2017-02-02T07:45:00Z,26.0257,-81.7332,0.0,19.6,2 
NERRS,ioos:station:NOAA.NERRS:rkblhwq:1,2017-02-02T08:45:00Z,26.0257,-81.7332,0.0,19.4,2 
NERRS,ioos:station:NOAA.NERRS:rkblhwq:1,2017-02-02T09:45:00Z,26.0257,-81.7332,0.0,19.4,2 
NERRS,ioos:station:NOAA.NERRS:rkblhwq:1,2017-02-02T10:45:00Z,26.0257,-81.7332,0.0,19.3,2 
NERRS,ioos:station:NOAA.NERRS:rkblhwq:1,2017-02-02T11:45:00Z,26.0257,-81.7332,0.0,19.1,2 
NERRS,ioos:station:NOAA.NERRS:rkblhwq:1,2017-02-02T12:45:00Z,26.0257,-81.7332,0.0,19.1,2 
NERRS,ioos:station:NOAA.NERRS:rkblhwq:1,2017-02-02T13:45:00Z,26.0257,-81.7332,0.0,19.2,2 
NERRS,ioos:station:NOAA.NERRS:rkblhwq:1,2017-02-02T14:45:00Z,26.0257,-81.7332,0.0,19.3,2 
NERRS,ioos:station:NOAA.NERRS:rkblhwq:1,2017-02-02T15:45:00Z,26.0257,-81.7332,0.0,19.9,2 
NERRS,ioos:station:NOAA.NERRS:rkblhwq:1,2017-02-02T16:45:00Z,26.0257,-81.7332,0.0,20.6,2 
NERRS,ioos:station:NOAA.NERRS:rkblhwq:1,2017-02-02T17:45:00Z,26.0257,-81.7332,0.0,20.7,2 
NERRS,ioos:station:NOAA.NERRS:rkblhwq:1,2017-02-02T18:45:00Z,26.0257,-81.7332,0.0,21.2,2 
NERRS,ioos:station:NOAA.NERRS:rkblhwq:1,2017-02-02T19:45:00Z,26.0257,-81.7332,0.0,21.0,2 
NERRS,ioos:station:NOAA.NERRS:rkblhwq:1,2017-02-02T20:45:00Z,26.0257,-81.7332,0.0,21.5,2 
NERRS,ioos:station:NOAA.NERRS:rkblhwq:1,2017-02-02T21:45:00Z,26.0257,-81.7332,0.0,21.5,2 
NERRS,ioos:station:NOAA.NERRS:rkblhwq:1,2017-02-02T22:45:00Z,26.0257,-81.7332,0.0,21.5,2 
NERRS,ioos:station:NOAA.NERRS:rkblhwq:1,2017-02-02T23:45:00Z,26.0257,-81.7332,0.0,21.4,2 
NERRS,ioos:station:NOAA.NERRS:rkblhwq:1,2017-02-03T00:45:00Z,26.0257,-81.7332,0.0,21.5,2 
NERRS,ioos:station:NOAA.NERRS:rkblhwq:1,2017-02-03T01:45:00Z,26.0257,-81.7332,0.0,21.6,2 
NERRS,ioos:station:NOAA.NERRS:rkblhwq:1,2017-02-03T02:45:00Z,26.0257,-81.7332,0.0,21.6,2 
NERRS,ioos:station:NOAA.NERRS:rkblhwq:1,2017-02-03T03:45:00Z,26.0257,-81.7332,0.0,21.6,2 
NERRS,ioos:station:NOAA.NERRS:rkblhwq:1,2017-02-03T04:45:00Z,26.0257,-81.7332,0.0,21.5,2 
NERRS,ioos:station:NOAA.NERRS:rkblhwq:1,2017-02-03T05:45:00Z,26.0257,-81.7332,0.0,21.4,2 
NERRS,ioos:station:NOAA.NERRS:rkblhwq:1,2017-02-03T06:45:00Z,26.0257,-81.7332,0.0,21.0,2 
NERRS,ioos:station:NOAA.NERRS:rkblhwq:1,2017-02-03T07:45:00Z,26.0257,-81.7332,0.0,20.8,2 
NERRS,ioos:station:NOAA.NERRS:rkblhwq:1,2017-02-03T08:45:00Z,26.0257,-81.7332,0.0,20.5,2 
NERRS,ioos:station:NOAA.NERRS:rkblhwq:1,2017-02-03T09:45:00Z,26.0257,-81.7332,0.0,20.4,2 
NERRS,ioos:station:NOAA.NERRS:rkblhwq:1,2017-02-03T10:45:00Z,26.0257,-81.7332,0.0,20.3,2 
NERRS,ioos:station:NOAA.NERRS:rkblhwq:1,2017-02-03T11:45:00Z,26.0257,-81.7332,0.0,20.3,2 
NERRS,ioos:station:NOAA.NERRS:rkblhwq:1,2017-02-03T12:45:00Z,26.0257,-81.7332,0.0,20.1,2 
NERRS,ioos:station:NOAA.NERRS:rkblhwq:1,2017-02-03T13:45:00Z,26.0257,-81.7332,0.0,20.1,2 
NERRS,ioos:station:NOAA.NERRS:rkblhwq:1,2017-02-03T14:45:00Z,26.0257,-81.7332,0.0,20.4,2 
NERRS,ioos:station:NOAA.NERRS:rkblhwq:1,2017-02-03T15:45:00Z,26.0257,-81.7332,0.0,20.8,2 
NERRS,ioos:station:NOAA.NERRS:rkblhwq:1,2017-02-03T16:45:00Z,26.0257,-81.7332,0.0,21.5,2 
NERRS,ioos:station:NOAA.NERRS:rkblhwq:1,2017-02-03T17:45:00Z,26.0257,-81.7332,0.0,21.7,2 
NERRS,ioos:station:NOAA.NERRS:rkblhwq:1,2017-02-03T18:45:00Z,26.0257,-81.7332,0.0,22.0,2 
NERRS,ioos:station:NOAA.NERRS:rkblhwq:1,2017-02-03T19:45:00Z,26.0257,-81.7332,0.0,22.2,2 
NERRS,ioos:station:NOAA.NERRS:rkblhwq:1,2017-02-03T20:45:00Z,26.0257,-81.7332,0.0,22.1,2 
NERRS,ioos:station:NOAA.NERRS:rkblhwq:1,2017-02-03T21:45:00Z,26.0257,-81.7332,0.0,22.5,2 
NERRS,ioos:station:NOAA.NERRS:rkblhwq:1,2017-02-03T23:45:00Z,26.0257,-81.7332,0.0,22.4,2 
NERRS,ioos:station:NOAA.NERRS:rkblhwq:1,2017-02-04T00:45:00Z,26.0257,-81.7332,0.0,22.1,2 
NERRS,ioos:station:NOAA.NERRS:rkblhwq:1,2017-02-04T01:45:00Z,26.0257,-81.7332,0.0,22.3,2 
NERRS,ioos:station:NOAA.NERRS:rkblhwq:1,2017-02-04T02:45:00Z,26.0257,-81.7332,0.0,22.1,2 
NERRS,ioos:station:NOAA.NERRS:rkblhwq:1,2017-02-04T03:45:00Z,26.0257,-81.7332,0.0,22.2,2 
NERRS,ioos:station:NOAA.NERRS:rkblhwq:1,2017-02-04T04:45:00Z,26.0257,-81.7332,0.0,22.0,2 
NERRS,ioos:station:NOAA.NERRS:rkblhwq:1,2017-02-04T05:45:00Z,26.0257,-81.7332,0.0,22.1,2 
NERRS,ioos:station:NOAA.NERRS:rkblhwq:1,2017-02-04T06:45:00Z,26.0257,-81.7332,0.0,21.9,2 
NERRS,ioos:station:NOAA.NERRS:rkblhwq:1,2017-02-04T07:45:00Z,26.0257,-81.7332,0.0,21.7,2 
NERRS,ioos:station:NOAA.NERRS:rkblhwq:1,2017-02-04T08:45:00Z,26.0257,-81.7332,0.0,21.4,2 
NERRS,ioos:station:NOAA.NERRS:rkblhwq:1,2017-02-04T09:45:00Z,26.0257,-81.7332,0.0,21.1,2 
NERRS,ioos:station:NOAA.NERRS:rkblhwq:1,2017-02-04T10:45:00Z,26.0257,-81.7332,0.0,20.8,2 
NERRS,ioos:station:NOAA.NERRS:rkblhwq:1,2017-02-04T11:45:00Z,26.0257,-81.7332,0.0,20.7,2 
NERRS,ioos:station:NOAA.NERRS:rkblhwq:1,2017-02-04T12:45:00Z,26.0257,-81.7332,0.0,20.6,2 
NERRS,ioos:station:NOAA.NERRS:rkblhwq:1,2017-02-04T13:45:00Z,26.0257,-81.7332,0.0,20.6,2 
NERRS,ioos:station:NOAA.NERRS:rkblhwq:1,2017-02-04T14:45:00Z,26.0257,-81.7332,0.0,20.6,2 
NERRS,ioos:station:NOAA.NERRS:rkblhwq:1,2017-02-04T15:45:00Z,26.0257,-81.7332,0.0,21.0,2 
NERRS,ioos:station:NOAA.NERRS:rkblhwq:1,2017-02-04T16:45:00Z,26.0257,-81.7332,0.0,21.6,2 
NERRS,ioos:station:NOAA.NERRS:rkblhwq:1,2017-02-04T17:45:00Z,26.0257,-81.7332,0.0,22.2,2 
NERRS,ioos:station:NOAA.NERRS:rkblhwq:1,2017-02-04T18:45:00Z,26.0257,-81.7332,0.0,22.2,2 
NERRS,ioos:station:NOAA.NERRS:rkblhwq:1,2017-02-04T19:45:00Z,26.0257,-81.7332,0.0,22.7,2 
NERRS,ioos:station:NOAA.NERRS:rkblhwq:1,2017-02-04T20:45:00Z,26.0257,-81.7332,0.0,22.9,2 
NERRS,ioos:station:NOAA.NERRS:rkblhwq:1,2017-02-04T21:45:00Z,26.0257,-81.7332,0.0,22.5,2 
NERRS,ioos:station:NOAA.NERRS:rkblhwq:1,2017-02-04T22:45:00Z,26.0257,-81.7332,0.0,22.5,2 
NERRS,ioos:station:NOAA.NERRS:rkblhwq:1,2017-02-04T23:45:00Z,26.0257,-81.7332,0.0,22.5,2 
NERRS,ioos:station:NOAA.NERRS:rkblhwq:1,2017-02-05T00:45:00Z,26.0257,-81.7332,0.0,22.5,2 
NERRS,ioos:station:NOAA.NERRS:rkblhwq:1,2017-02-05T01:45:00Z,26.0257,-81.7332,0.0,22.3,2 
NERRS,ioos:station:NOAA.NERRS:rkblhwq:1,2017-02-05T02:45:00Z,26.0257,-81.7332,0.0,22.3,2 
NERRS,ioos:station:NOAA.NERRS:rkblhwq:1,2017-02-05T03:45:00Z,26.0257,-81.7332,0.0,22.5,2 
NERRS,ioos:station:NOAA.NERRS:rkblhwq:1,2017-02-05T04:45:00Z,26.0257,-81.7332,0.0,22.4,2 
NERRS,ioos:station:NOAA.NERRS:rkblhwq:1,2017-02-05T05:45:00Z,26.0257,-81.7332,0.0,22.3,2 
NERRS,ioos:station:NOAA.NERRS:rkblhwq:1,2017-02-05T06:45:00Z,26.0257,-81.7332,0.0,22.2,2 
NERRS,ioos:station:NOAA.NERRS:rkblhwq:1,2017-02-05T07:45:00Z,26.0257,-81.7332,0.0,22.0,2 
NERRS,ioos:station:NOAA.NERRS:rkblhwq:1,2017-02-05T08:45:00Z,26.0257,-81.7332,0.0,21.9,2 
NERRS,ioos:station:NOAA.NERRS:rkblhwq:1,2017-02-05T09:45:00Z,26.0257,-81.7332,0.0,21.6,2 
NERRS,ioos:station:NOAA.NERRS:rkblhwq:1,2017-02-05T10:45:00Z,26.0257,-81.7332,0.0,21.4,2 
NERRS,ioos:station:NOAA.NERRS:rkblhwq:1,2017-02-05T11:45:00Z,26.0257,-81.7332,0.0,21.2,2 
NERRS,ioos:station:NOAA.NERRS:rkblhwq:1,2017-02-05T12:45:00Z,26.0257,-81.7332,0.0,21.0,2 
NERRS,ioos:station:NOAA.NERRS:rkblhwq:1,2017-02-05T13:45:00Z,26.0257,-81.7332,0.0,21.0,2 
NERRS,ioos:station:NOAA.NERRS:rkblhwq:1,2017-02-05T14:45:00Z,26.0257,-81.7332,0.0,21.2,2 
NERRS,ioos:station:NOAA.NERRS:rkblhwq:1,2017-02-05T15:45:00Z,26.0257,-81.7332,0.0,21.4,2 
NERRS,ioos:station:NOAA.NERRS:rkblhwq:1,2017-02-05T16:45:00Z,26.0257,-81.7332,0.0,21.9,2 
NERRS,ioos:station:NOAA.NERRS:rkblhwq:1,2017-02-05T17:45:00Z,26.0257,-81.7332,0.0,22.3,2 
NERRS,ioos:station:NOAA.NERRS:rkblhwq:1,2017-02-05T18:45:00Z,26.0257,-81.7332,0.0,22.4,2 
NERRS,ioos:station:NOAA.NERRS:rkblhwq:1,2017-02-05T19:45:00Z,26.0257,-81.7332,0.0,22.7,2 
NERRS,ioos:station:NOAA.NERRS:rkblhwq:1,2017-02-05T20:45:00Z,26.0257,-81.7332,0.0,23.1,2 
NERRS,ioos:station:NOAA.NERRS:rkblhwq:1,2017-02-05T21:45:00Z,26.0257,-81.7332,0.0,23.4,2 
NERRS,ioos:station:NOAA.NERRS:rkblhwq:1,2017-02-05T22:45:00Z,26.0257,-81.7332,0.0,23.2,2 
NERRS,ioos:station:NOAA.NERRS:rkblhwq:1,2017-02-05T23:45:00Z,26.0257,-81.7332,0.0,22.8,2 
NERRS,ioos:station:NOAA.NERRS:rkblhwq:1,2017-02-06T00:45:00Z,26.0257,-81.7332,0.0,22.7,2 
NERRS,ioos:station:NOAA.NERRS:rkblhwq:1,2017-02-06T01:45:00Z,26.0257,-81.7332,0.0,22.9,2 
NERRS,ioos:station:NOAA.NERRS:rkblhwq:1,2017-02-06T02:45:00Z,26.0257,-81.7332,0.0,22.7,2 
NERRS,ioos:station:NOAA.NERRS:rkblhwq:1,2017-02-06T03:45:00Z,26.0257,-81.7332,0.0,22.7,2 
NERRS,ioos:station:NOAA.NERRS:rkblhwq:1,2017-02-06T04:45:00Z,26.0257,-81.7332,0.0,22.6,2 
NERRS,ioos:station:NOAA.NERRS:rkblhwq:1,2017-02-06T05:45:00Z,26.0257,-81.7332,0.0,22.6,2 
NERRS,ioos:station:NOAA.NERRS:rkblhwq:1,2017-02-06T06:45:00Z,26.0257,-81.7332,0.0,22.4,2 
NERRS,ioos:station:NOAA.NERRS:rkblhwq:1,2017-02-06T07:45:00Z,26.0257,-81.7332,0.0,22.2,2 
NERRS,ioos:station:NOAA.NERRS:rkblhwq:1,2017-02-06T08:45:00Z,26.0257,-81.7332,0.0,22.1,2 
NERRS,ioos:station:NOAA.NERRS:rkblhwq:1,2017-02-06T09:45:00Z,26.0257,-81.7332,0.0,22.0,2 
NERRS,ioos:station:NOAA.NERRS:rkblhwq:1,2017-02-06T10:45:00Z,26.0257,-81.7332,0.0,22.0,2 
NERRS,ioos:station:NOAA.NERRS:rkblhwq:1,2017-02-06T11:45:00Z,26.0257,-81.7332,0.0,21.8,2 
NERRS,ioos:station:NOAA.NERRS:rkblhwq:1,2017-02-06T12:45:00Z,26.0257,-81.7332,0.0,21.6,2 
NERRS,ioos:station:NOAA.NERRS:rkblhwq:1,2017-02-06T13:45:00Z,26.0257,-81.7332,0.0,21.5,2 
NERRS,ioos:station:NOAA.NERRS:rkblhwq:1,2017-02-06T14:45:00Z,26.0257,-81.7332,0.0,21.6,2 
NERRS,ioos:station:NOAA.NERRS:rkblhwq:1,2017-02-06T15:45:00Z,26.0257,-81.7332,0.0,21.9,2 
NERRS,ioos:station:NOAA.NERRS:rkblhwq:1,2017-02-06T16:45:00Z,26.0257,-81.7332,0.0,22.4,2 
NERRS,ioos:station:NOAA.NERRS:rkblhwq:1,2017-02-06T17:45:00Z,26.0257,-81.7332,0.0,22.5,2 
NERRS,ioos:station:NOAA.NERRS:rkblhwq:1,2017-02-06T18:45:00Z,26.0257,-81.7332,0.0,23.0,2 
NERRS,ioos:station:NOAA.NERRS:rkblhwq:1,2017-02-06T19:45:00Z,26.0257,-81.7332,0.0,23.4,2 
NERRS,ioos:station:NOAA.NERRS:rkblhwq:1,2017-02-06T20:45:00Z,26.0257,-81.7332,0.0,23.8,2 
NERRS,ioos:station:NOAA.NERRS:rkblhwq:1,2017-02-06T21:45:00Z,26.0257,-81.7332,0.0,23.6,2 
NERRS,ioos:station:NOAA.NERRS:rkblhwq:1,2017-02-06T23:45:00Z,26.0257,-81.7332,0.0,23.4,2 
NERRS,ioos:station:NOAA.NERRS:rkblhwq:1,2017-02-07T01:45:00Z,26.0257,-81.7332,0.0,22.9,2 
NERRS,ioos:station:NOAA.NERRS:rkblhwq:1,2017-02-07T02:45:00Z,26.0257,-81.7332,0.0,23.3,2 
NERRS,ioos:station:NOAA.NERRS:rkblhwq:1,2017-02-07T03:45:00Z,26.0257,-81.7332,0.0,23.0,2 
NERRS,ioos:station:NOAA.NERRS:rkblhwq:1,2017-02-07T04:45:00Z,26.0257,-81.7332,0.0,22.7,2 
NERRS,ioos:station:NOAA.NERRS:rkblhwq:1,2017-02-07T05:45:00Z,26.0257,-81.7332,0.0,23.0,2 
NERRS,ioos:station:NOAA.NERRS:rkblhwq:1,2017-02-07T06:45:00Z,26.0257,-81.7332,0.0,22.8,2 
NERRS,ioos:station:NOAA.NERRS:rkblhwq:1,2017-02-07T07:45:00Z,26.0257,-81.7332,0.0,23.0,2 
NERRS,ioos:station:NOAA.NERRS:rkblhwq:1,2017-02-07T08:45:00Z,26.0257,-81.7332,0.0,22.8,2 
NERRS,ioos:station:NOAA.NERRS:rkblhwq:1,2017-02-07T09:45:00Z,26.0257,-81.7332,0.0,22.7,2 
NERRS,ioos:station:NOAA.NERRS:rkblhwq:1,2017-02-07T10:45:00Z,26.0257,-81.7332,0.0,22.6,2 
NERRS,ioos:station:NOAA.NERRS:rkblhwq:1,2017-02-07T11:45:00Z,26.0257,-81.7332,0.0,22.6,2 
NERRS,ioos:station:NOAA.NERRS:rkblhwq:1,2017-02-07T12:45:00Z,26.0257,-81.7332,0.0,22.3,2 
NERRS,ioos:station:NOAA.NERRS:rkblhwq:1,2017-02-07T13:45:00Z,26.0257,-81.7332,0.0,22.3,2 
NERRS,ioos:station:NOAA.NERRS:rkblhwq:1,2017-02-07T14:45:00Z,26.0257,-81.7332,0.0,22.4,2 
NERRS,ioos:station:NOAA.NERRS:rkblhwq:1,2017-02-07T15:45:00Z,26.0257,-81.7332,0.0,22.7,2 
NERRS,ioos:station:NOAA.NERRS:rkblhwq:1,2017-02-07T16:45:00Z,26.0257,-81.7332,0.0,22.8,2 
NERRS,ioos:station:NOAA.NERRS:rkblhwq:1,2017-02-07T17:45:00Z,26.0257,-81.7332,0.0,23.3,2 
NERRS,ioos:station:NOAA.NERRS:rkblhwq:1,2017-02-07T18:45:00Z,26.0257,-81.7332,0.0,23.6,2 
NERRS,ioos:station:NOAA.NERRS:rkblhwq:1,2017-02-07T19:45:00Z,26.0257,-81.7332,0.0,24.2,2 
NERRS,ioos:station:NOAA.NERRS:rkblhwq:1,2017-02-07T20:45:00Z,26.0257,-81.7332,0.0,24.7,2 
NERRS,ioos:station:NOAA.NERRS:rkblhwq:1,2017-02-07T22:45:00Z,26.0257,-81.7332,0.0,24.4,2 
NERRS,ioos:station:NOAA.NERRS:rkblhwq:1,2017-02-07T23:45:00Z,26.0257,-81.7332,0.0,24.2,2 
NERRS,ioos:station:NOAA.NERRS:rkblhwq:1,2017-02-08T00:45:00Z,26.0257,-81.7332,0.0,24.0,2 
NERRS,ioos:station:NOAA.NERRS:rkblhwq:1,2017-02-08T01:45:00Z,26.0257,-81.7332,0.0,23.8,2 
NERRS,ioos:station:NOAA.NERRS:rkblhwq:1,2017-02-08T02:45:00Z,26.0257,-81.7332,0.0,23.6,2 
NERRS,ioos:station:NOAA.NERRS:rkblhwq:1,2017-02-08T03:45:00Z,26.0257,-81.7332,0.0,23.7,2 
NERRS,ioos:station:NOAA.NERRS:rkblhwq:1,2017-02-08T05:45:00Z,26.0257,-81.7332,0.0,23.4,2 
NERRS,ioos:station:NOAA.NERRS:rkblhwq:1,2017-02-08T07:45:00Z,26.0257,-81.7332,0.0,23.6,2 
NERRS,ioos:station:NOAA.NERRS:rkblhwq:1,2017-02-08T08:45:00Z,26.0257,-81.7332,0.0,23.5,2 
NERRS,ioos:station:NOAA.NERRS:rkblhwq:1,2017-02-08T09:45:00Z,26.0257,-81.7332,0.0,23.5,2 
NERRS,ioos:station:NOAA.NERRS:rkblhwq:1,2017-02-08T10:45:00Z,26.0257,-81.7332,0.0,23.4,2 
NERRS,ioos:station:NOAA.NERRS:rkblhwq:1,2017-02-08T11:45:00Z,26.0257,-81.7332,0.0,23.3,2 
NERRS,ioos:station:NOAA.NERRS:rkblhwq:1,2017-02-08T12:45:00Z,26.0257,-81.7332,0.0,23.4,2 
NERRS,ioos:station:NOAA.NERRS:rkblhwq:1,2017-02-08T13:45:00Z,26.0257,-81.7332,0.0,23.2,2 
NERRS,ioos:station:NOAA.NERRS:rkblhwq:1,2017-02-08T14:45:00Z,26.0257,-81.7332,0.0,23.3,2 
NERRS,ioos:station:NOAA.NERRS:rkblhwq:1,2017-02-08T15:45:00Z,26.0257,-81.7332,0.0,23.3,2 
NERRS,ioos:station:NOAA.NERRS:rkblhwq:1,2017-02-08T17:45:00Z,26.0257,-81.7332,0.0,24.0,2 
NERRS,ioos:station:NOAA.NERRS:rkblhwq:1,2017-02-08T18:45:00Z,26.0257,-81.7332,0.0,24.3,2 
NERRS,ioos:station:NOAA.NERRS:rkblhwq:1,2017-02-08T19:45:00Z,26.0257,-81.7332,0.0,24.5,2 
NERRS,ioos:station:NOAA.NERRS:rkblhwq:1,2017-02-08T20:45:00Z,26.0257,-81.7332,0.0,24.8,2 
NERRS,ioos:station:NOAA.NERRS:rkblhwq:1,2017-02-08T21:45:00Z,26.0257,-81.7332,0.0,25.4,2 
NERRS,ioos:station:NOAA.NERRS:rkblhwq:1,2017-02-08T22:45:00Z,26.0257,-81.7332,0.0,25.6,2 
NERRS,ioos:station:NOAA.NERRS:rkblhwq:1,2017-02-08T23:45:00Z,26.0257,-81.7332,0.0,25.2,2 
NERRS,ioos:station:NOAA.NERRS:rkblhwq:1,2017-02-09T00:45:00Z,26.0257,-81.7332,0.0,25.0,2 
NERRS,ioos:station:NOAA.NERRS:rkblhwq:1,2017-02-09T01:45:00Z,26.0257,-81.7332,0.0,24.9,2 
NERRS,ioos:station:NOAA.NERRS:rkblhwq:1,2017-02-09T02:45:00Z,26.0257,-81.7332,0.0,24.7,2 
NERRS,ioos:station:NOAA.NERRS:rkblhwq:1,2017-02-09T03:45:00Z,26.0257,-81.7332,0.0,24.5,2 
NERRS,ioos:station:NOAA.NERRS:rkblhwq:1,2017-02-09T04:45:00Z,26.0257,-81.7332,0.0,24.1,2 
NERRS,ioos:station:NOAA.NERRS:rkblhwq:1,2017-02-09T05:45:00Z,26.0257,-81.7332,0.0,24.5,2 
NERRS,ioos:station:NOAA.NERRS:rkblhwq:1,2017-02-09T06:45:00Z,26.0257,-81.7332,0.0,24.1,2 
NERRS,ioos:station:NOAA.NERRS:rkblhwq:1,2017-02-09T07:45:00Z,26.0257,-81.7332,0.0,24.4,2 
NERRS,ioos:station:NOAA.NERRS:rkblhwq:1,2017-02-09T08:45:00Z,26.0257,-81.7332,0.0,24.4,2 
NERRS,ioos:station:NOAA.NERRS:rkblhwq:1,2017-02-09T09:45:00Z,26.0257,-81.7332,0.0,24.3,2 
NERRS,ioos:station:NOAA.NERRS:rkblhwq:1,2017-02-09T10:45:00Z,26.0257,-81.7332,0.0,24.2,2 
NERRS,ioos:station:NOAA.NERRS:rkblhwq:1,2017-02-09T11:45:00Z,26.0257,-81.7332,0.0,24.0,2 
NERRS,ioos:station:NOAA.NERRS:rkblhwq:1,2017-02-09T12:45:00Z,26.0257,-81.7332,0.0,23.8,2 
NERRS,ioos:station:NOAA.NERRS:rkblhwq:1,2017-02-09T13:45:00Z,26.0257,-81.7332,0.0,24.0,2 
NERRS,ioos:station:NOAA.NERRS:rkblhwq:1,2017-02-16T15:45:00Z,26.0257,-81.7332,0.0,23.8,2 
NERRS,ioos:station:NOAA.NERRS:rkblhwq:1,2017-02-16T16:45:00Z,26.0257,-81.7332,0.0,24.2,2 
NERRS,ioos:station:NOAA.NERRS:rkblhwq:1,2017-02-16T17:45:00Z,26.0257,-81.7332,0.0,24.2,2 
NERRS,ioos:station:NOAA.NERRS:rkblhwq:1,2017-02-16T18:45:00Z,26.0257,-81.7332,0.0,24.5,2 
NERRS,ioos:station:NOAA.NERRS:rkblhwq:1,2017-02-16T19:45:00Z,26.0257,-81.7332,0.0,24.5,2 
NERRS,ioos:station:NOAA.NERRS:rkblhwq:1,2017-02-16T21:45:00Z,26.0257,-81.7332,0.0,24.3,2 
NERRS,ioos:station:NOAA.NERRS:rkblhwq:1,2017-02-16T22:45:00Z,26.0257,-81.7332,0.0,24.4,2 
NERRS,ioos:station:NOAA.NERRS:rkblhwq:1,2017-02-17T00:45:00Z,26.0257,-81.7332,0.0,24.1,2 
NERRS,ioos:station:NOAA.NERRS:rkblhwq:1,2017-02-17T01:45:00Z,26.0257,-81.7332,0.0,24.0,2 
NERRS,ioos:station:NOAA.NERRS:rkblhwq:1,2017-02-17T02:45:00Z,26.0257,-81.7332,0.0,23.7,2 
NERRS,ioos:station:NOAA.NERRS:rkblhwq:1,2017-02-17T03:45:00Z,26.0257,-81.7332,0.0,23.4,2 
NERRS,ioos:station:NOAA.NERRS:rkblhwq:1,2017-02-17T04:45:00Z,26.0257,-81.7332,0.0,23.1,2 
NERRS,ioos:station:NOAA.NERRS:rkblhwq:1,2017-02-17T05:45:00Z,26.0257,-81.7332,0.0,23.1,2 
NERRS,ioos:station:NOAA.NERRS:rkblhwq:1,2017-02-17T06:45:00Z,26.0257,-81.7332,0.0,22.7,2 
NERRS,ioos:station:NOAA.NERRS:rkblhwq:1,2017-02-17T07:45:00Z,26.0257,-81.7332,0.0,22.3,2 
NERRS,ioos:station:NOAA.NERRS:rkblhwq:1,2017-02-17T08:45:00Z,26.0257,-81.7332,0.0,22.1,2 
NERRS,ioos:station:NOAA.NERRS:rkblhwq:1,2017-02-17T09:45:00Z,26.0257,-81.7332,0.0,21.9,2 
NERRS,ioos:station:NOAA.NERRS:rkblhwq:1,2017-02-17T10:45:00Z,26.0257,-81.7332,0.0,21.8,2 
NERRS,ioos:station:NOAA.NERRS:rkblhwq:1,2017-02-17T11:45:00Z,26.0257,-81.7332,0.0,21.5,2 
NERRS,ioos:station:NOAA.NERRS:rkblhwq:1,2017-02-17T12:45:00Z,26.0257,-81.7332,0.0,21.4,2 
NERRS,ioos:station:NOAA.NERRS:rkblhwq:1,2017-02-17T13:45:00Z,26.0257,-81.7332,0.0,21.2,2 
NERRS,ioos:station:NOAA.NERRS:rkblhwq:1,2017-02-17T16:45:00Z,26.0257,-81.7332,0.0,22.0,2 
NERRS,ioos:station:NOAA.NERRS:rkblhwq:1,2017-02-17T17:45:00Z,26.0257,-81.7332,0.0,22.6,2 
NERRS,ioos:station:NOAA.NERRS:rkblhwq:1,2017-02-17T18:45:00Z,26.0257,-81.7332,0.0,22.9,2 
NERRS,ioos:station:NOAA.NERRS:rkblhwq:1,2017-02-17T20:45:00Z,26.0257,-81.7332,0.0,23.0,2 
NERRS,ioos:station:NOAA.NERRS:rkblhwq:1,2017-02-17T21:45:00Z,26.0257,-81.7332,0.0,23.1,2 
NERRS,ioos:station:NOAA.NERRS:rkblhwq:1,2017-02-18T01:45:00Z,26.0257,-81.7332,0.0,23.2,2 
NERRS,ioos:station:NOAA.NERRS:rkblhwq:1,2017-02-18T02:45:00Z,26.0257,-81.7332,0.0,22.9,2 
NERRS,ioos:station:NOAA.NERRS:rkblhwq:1,2017-02-18T03:45:00Z,26.0257,-81.7332,0.0,22.7,2 
NERRS,ioos:station:NOAA.NERRS:rkblhwq:1,2017-02-18T04:45:00Z,26.0257,-81.7332,0.0,22.7,2 
NERRS,ioos:station:NOAA.NERRS:rkblhwq:1,2017-02-18T05:45:00Z,26.0257,-81.7332,0.0,22.5,2 
NERRS,ioos:station:NOAA.NERRS:rkblhwq:1,2017-02-18T06:45:00Z,26.0257,-81.7332,0.0,22.3,2 
NERRS,ioos:station:NOAA.NERRS:rkblhwq:1,2017-02-18T07:45:00Z,26.0257,-81.7332,0.0,22.0,2 
NERRS,ioos:station:NOAA.NERRS:rkblhwq:1,2017-02-18T08:45:00Z,26.0257,-81.7332,0.0,21.8,2 
NERRS,ioos:station:NOAA.NERRS:rkblhwq:1,2017-02-18T09:45:00Z,26.0257,-81.7332,0.0,21.7,2 
NERRS,ioos:station:NOAA.NERRS:rkblhwq:1,2017-02-18T10:45:00Z,26.0257,-81.7332,0.0,21.5,2 
NERRS,ioos:station:NOAA.NERRS:rkblhwq:1,2017-02-18T11:45:00Z,26.0257,-81.7332,0.0,21.3,2 
NERRS,ioos:station:NOAA.NERRS:rkblhwq:1,2017-02-18T12:45:00Z,26.0257,-81.7332,0.0,21.2,2 
NERRS,ioos:station:NOAA.NERRS:rkblhwq:1,2017-02-18T13:45:00Z,26.0257,-81.7332,0.0,21.4,2 
NERRS,ioos:station:NOAA.NERRS:rkblhwq:1,2017-02-18T14:45:00Z,26.0257,-81.7332,0.0,21.5,2 
NERRS,ioos:station:NOAA.NERRS:rkblhwq:1,2017-02-18T15:45:00Z,26.0257,-81.7332,0.0,21.7,2 
NERRS,ioos:station:NOAA.NERRS:rkblhwq:1,2017-02-18T16:45:00Z,26.0257,-81.7332,0.0,22.1,2 
NERRS,ioos:station:NOAA.NERRS:rkblhwq:1,2017-02-18T17:45:00Z,26.0257,-81.7332,0.0,22.3,2 
NERRS,ioos:station:NOAA.NERRS:rkblhwq:1,2017-02-18T18:45:00Z,26.0257,-81.7332,0.0,22.7,2 
NERRS,ioos:station:NOAA.NERRS:rkblhwq:1,2017-02-18T19:45:00Z,26.0257,-81.7332,0.0,23.1,2 
NERRS,ioos:station:NOAA.NERRS:rkblhwq:1,2017-02-18T20:45:00Z,26.0257,-81.7332,0.0,23.1,2 
NERRS,ioos:station:NOAA.NERRS:rkblhwq:1,2017-02-18T21:45:00Z,26.0257,-81.7332,0.0,23.3,2 
NERRS,ioos:station:NOAA.NERRS:rkblhwq:1,2017-02-18T22:45:00Z,26.0257,-81.7332,0.0,23.3,2 
NERRS,ioos:station:NOAA.NERRS:rkblhwq:1,2017-02-18T23:45:00Z,26.0257,-81.7332,0.0,23.4,2 
NERRS,ioos:station:NOAA.NERRS:rkblhwq:1,2017-02-19T00:45:00Z,26.0257,-81.7332,0.0,23.3,2 
NERRS,ioos:station:NOAA.NERRS:rkblhwq:1,2017-02-19T01:45:00Z,26.0257,-81.7332,0.0,23.2,2 
NERRS,ioos:station:NOAA.NERRS:rkblhwq:1,2017-02-19T02:45:00Z,26.0257,-81.7332,0.0,23.5,2 
NERRS,ioos:station:NOAA.NERRS:rkblhwq:1,2017-02-19T03:45:00Z,26.0257,-81.7332,0.0,23.5,2 
NERRS,ioos:station:NOAA.NERRS:rkblhwq:1,2017-02-19T04:45:00Z,26.0257,-81.7332,0.0,23.4,2 
NERRS,ioos:station:NOAA.NERRS:rkblhwq:1,2017-02-19T05:45:00Z,26.0257,-81.7332,0.0,23.4,2 
NERRS,ioos:station:NOAA.NERRS:rkblhwq:1,2017-02-19T06:45:00Z,26.0257,-81.7332,0.0,23.3,2 
NERRS,ioos:station:NOAA.NERRS:rkblhwq:1,2017-02-19T07:45:00Z,26.0257,-81.7332,0.0,23.1,2 
NERRS,ioos:station:NOAA.NERRS:rkblhwq:1,2017-02-19T08:45:00Z,26.0257,-81.7332,0.0,23.0,2 
NERRS,ioos:station:NOAA.NERRS:rkblhwq:1,2017-02-19T09:45:00Z,26.0257,-81.7332,0.0,22.9,2 
NERRS,ioos:station:NOAA.NERRS:rkblhwq:1,2017-02-19T10:45:00Z,26.0257,-81.7332,0.0,22.8,2 
NERRS,ioos:station:NOAA.NERRS:rkblhwq:1,2017-02-19T11:45:00Z,26.0257,-81.7332,0.0,22.7,2 
NERRS,ioos:station:NOAA.NERRS:rkblhwq:1,2017-02-19T12:45:00Z,26.0257,-81.7332,0.0,22.7,2 
NERRS,ioos:station:NOAA.NERRS:rkblhwq:1,2017-02-19T13:45:00Z,26.0257,-81.7332,0.0,22.7,2 
NERRS,ioos:station:NOAA.NERRS:rkblhwq:1,2017-02-19T14:45:00Z,26.0257,-81.7332,0.0,23.0,2 
NERRS,ioos:station:NOAA.NERRS:rkblhwq:1,2017-02-19T15:45:00Z,26.0257,-81.7332,0.0,23.1,2 
NERRS,ioos:station:NOAA.NERRS:rkblhwq:1,2017-02-19T16:45:00Z,26.0257,-81.7332,0.0,23.4,2 